Weather in Kulygi

Russia / Kirov Oblast     56°12′46″N   51°14′32″E
temp.,
°C
wind,
m/s
gust,
m/s
humid.,
%
clouds,
%
prec.,
mm/h
press.,
hPa
HPBL,
m
4 march, thu
thu400:00−7w4993100 0.1 1002371
03:00−10sw399494 0.1 1002215
06:00−8sw41093100 0.1 999375
09:00−5sw51092100 0.2 998459
12:00−2ssw61191100 0.1 995816
15:00−2ssw71395100 1.3 992980
18:000wsw91797100 1.9 9881326
21:00−4wsw7158493 2.3 990992
5 march, fri
fri500:00−5w7148799 0.1 993860
03:00−7wnw5118999 0.2 997638
06:00−12w389594 0.0 1000236
09:00−11wnw479280 0.0 1002306
12:00−9wnw368617 0.0 1004368
15:00−9wnw35859 0.0 1006368
18:00−14wsw22890 0.0 100720
21:00−14wsw23940 0.0 100934
6 march, sat
sat600:00−14wsw259547 0.0 1009121
03:00−14wsw239771 0.1 101073
06:00−14wsw229795 0.1 101127
09:00−11wsw139497 0.4 1012251
12:00−9w2288100 0.1 1011486
15:00−9nw2390100 0.3 1010466
18:00−14nw2494100 0.0 101089
21:00−20nw239774 0.0 101145
7 march, sun
sun700:00−22wnw229914 0.0 101121
03:00−23wnw229946 0.0 101220
06:00−23wsw129948 0.0 101220
09:00−18wsw259567 0.1 1012241
12:00−14ssw359291 0.0 1011337
15:00−12s499085 0.0 1009432
18:00−13s6129292 0.0 1007544
21:00−12sse6139396 0.2 1004550
8 march, mon
mon800:00−11sse71493100 0.9 999762
03:00−8sse71492100 1.6 996858
06:00−5s61394100 1.4 9921018
09:00−8wsw61279100 2.0 993824
12:00−7sw6118271 0.0 9941009
15:00−7sw7138185 0.1 9951466
18:00−9wsw81490100 0.4 9971068
21:00−9w61389100 0.6 999794